{"data":{"norad_id":62518,"intl_designator":"2025-004H","name":"STARLINK-11450 [DTC]","alt_names":[],"object_type":"PAYLOAD","status":"ACTIVE","operator":null,"country":"US","launch_date":"2025-01-08","launch_site_code":"AFETR","launch_vehicle":null,"mission":null,"orbit_class":"UNKNOWN","rcs_meters":null,"size_class":null,"mass_kg":null,"dimensions":null,"purposes":["comms"],"wikipedia_slug":null,"has_3d_model":false,"image_url":null,"decayed_at":null,"tle_current":{"epoch":"2026-05-24T21:33:27.425376Z","epoch_age_seconds":80012,"freshness":"FRESH","line1":"1 62518U 25004H   26144.89823409  .00154243  00000+0  11811-2 0  9995","line2":"2 62518  43.0028 331.4127 0002713 257.5382 102.5182 15.70883161 79192","mean_motion":15.70883161,"eccentricity":0.0002713,"inclination_deg":43.0028,"raan_deg":331.4127,"arg_perigee_deg":257.5382,"mean_anomaly_deg":102.5182,"bstar":0.0011811,"rev_number":7919,"period_min":91.668179769864,"perigee_km":354.5446299665,"apogee_km":358.1987743883,"semimajor_km":6734.5087021774,"source":"CELESTRAK","updated_at":"2026-05-25T13:38:19.703160Z"}}}